Weather History for Whiting Fld NAS, FL

Change the Weather History Date:

Saturday, August 17, 2013

  Actual Average Record
Temperature  
Mean Temperature 73 °F -  
Max Temperature 75 °F 87 °F 97 °F (2011)
Min Temperature 71 °F 70 °F 66 °F (2004)
Cooling Degree Days 8    
Growing Degree Days 23 (Base 50)    
Moisture  
Dew Point 71 °F    
Average Humidity 93    
Maximum Humidity 100    
Minimum Humidity 88    
Precipitation  
Precipitation 1.37 in - - ()
Sea Level Pressure  
Sea Level Pressure 29.98 in    
Wind  
Wind Speed 5 mph (East)    
Max Wind Speed 10 mph    
Max Gust Speed -    
Visibility 6 miles    
Events Rain    
Averages and records for this station are not official NWS values.
T = Trace of Precipitation, MM = Missing Value Source: NWS Daily Summary

Daily Weather History Graph

Daily Weather History Graph

Search for Another Location

Airport:

Trip Planner

Search our weather history database for the weather conditions in past years. The results will help you decide how hot, cold, wet, or windy it might be!

Date:

Astronomy

Aug. 17, 2013 Rise Set
Actual Time 6:15 AM CDT 7:27 PM CDT
Civil Twilight 5:50 AM CDT 7:53 PM CDT
Nautical Twilight 5:20 AM CDT 8:22 PM CDT
Astronomical Twilight 4:49 AM CDT 8:53 PM CDT
Moon 4:36 PM CDT (8/17) 2:26 AM CDT (8/17)
Length of Visible Light 14h 02m
Length of Day
13h 12m
Waxing Gibbous, 84% of the Moon is Illuminated
Aug 17
Waxing Gibbous
Aug 20
Full
Aug 28
Last Quarter
Sep 5
New
Sep 12
First Quarter

Hourly Weather History & Observations

Time (CDT) Temp. Dew Point Humidity Pressure Visibility Wind Dir Wind Speed Gust Speed Precip Events Conditions
12:32 AM 75.2 °F 71.6 °F 89% 30.01 in 5.0 mi NE 3.5 mph - 0.02 in Rain Light Rain
12:56 AM 73.9 °F 71.1 °F 91% 29.95 in 4.0 mi ENE 3.5 mph - 0.06 in Rain Rain
1:53 AM 73.4 °F 71.6 °F 94% 30.00 in 5.0 mi Calm Calm - 0.02 in Rain Light Rain
1:56 AM 73.9 °F 71.1 °F 91% 29.95 in 5.0 mi Calm Calm - 0.02 in Rain Light Rain
2:02 AM 73.4 °F 71.6 °F 94% 29.99 in 5.0 mi NE 3.5 mph - 0.01 in Rain Light Rain
2:18 AM 73.4 °F 71.6 °F 94% 29.99 in 4.0 mi ENE 4.6 mph - 0.03 in Rain Rain
2:36 AM 73.4 °F 71.6 °F 94% 29.98 in 2.0 mi ENE 6.9 mph - 0.14 in Rain Heavy Rain
2:48 AM 73.4 °F 71.6 °F 94% 29.97 in 2.5 mi East 6.9 mph - 0.19 in Rain Rain
2:56 AM 73.0 °F 71.1 °F 93% 29.93 in 4.0 mi ENE 8.1 mph - 0.20 in Rain Rain
3:56 AM 73.0 °F 72.0 °F 96% 29.94 in 3.0 mi ENE 3.5 mph - 0.18 in Rain Heavy Rain
4:12 AM 73.4 °F 71.6 °F 94% 29.98 in 3.0 mi ENE 3.5 mph - 0.08 in Rain Heavy Rain
4:47 AM 73.4 °F 71.6 °F 94% 29.97 in 3.0 mi ENE 6.9 mph - 0.20 in Rain Rain
4:56 AM 73.0 °F 71.1 °F 93% 29.93 in 3.0 mi ENE 8.1 mph - 0.25 in Rain Heavy Rain
5:56 AM 73.0 °F 70.0 °F 90% 29.91 in 8.0 mi East 8.1 mph - 0.07 in Rain Light Rain
6:56 AM 72.0 °F 70.0 °F 93% 29.94 in 5.0 mi ENE 6.9 mph - 0.04 in Rain Rain
7:04 AM 71.6 °F 69.8 °F 94% 29.99 in 5.0 mi Variable 4.6 mph - 0.02 in Rain Rain
7:10 AM 71.6 °F 69.8 °F 94% 29.99 in 4.0 mi NE 4.6 mph - 0.04 in Rain Rain
7:41 AM 71.6 °F 71.6 °F 100% 29.99 in 2.0 mi NE 4.6 mph - 0.17 in Rain Heavy Rain
7:56 AM 72.0 °F 71.1 °F 97% 29.95 in 2.5 mi NNE 3.5 mph - 0.22 in Rain Rain
8:01 AM 71.6 °F 71.6 °F 100% 29.99 in 3.0 mi Variable 3.5 mph - 0.02 in Rain Rain
8:56 AM 73.0 °F 71.1 °F 93% 29.96 in 8.0 mi Variable 4.6 mph - 0.04 in Rain Light Rain
9:09 AM 73.4 °F 71.6 °F 94% 30.00 in 6.0 mi ENE 5.8 mph - 0.02 in Rain Rain
9:21 AM 73.4 °F 71.6 °F 94% 30.00 in 9.0 mi East 8.1 mph - 0.02 in Rain Light Rain
9:30 AM 73.4 °F 71.6 °F 94% 30.01 in 8.0 mi ENE 4.6 mph - 0.02 in Rain Light Rain
9:56 AM 73.0 °F 71.1 °F 93% 29.97 in 7.0 mi ENE 6.9 mph - 0.02 in Rain Light Rain
10:26 AM 73.4 °F 71.6 °F 94% 30.02 in 8.0 mi ENE 4.6 mph - 0.00 in Rain Light Rain
10:56 AM 73.0 °F 71.1 °F 93% 29.97 in 8.0 mi ENE 8.1 mph - 0.02 in Rain Light Rain
11:14 AM 73.4 °F 71.6 °F 94% 30.02 in 6.0 mi East 9.2 mph - 0.02 in Rain Rain
11:22 AM 73.4 °F 71.6 °F 94% 30.02 in 5.0 mi East 8.1 mph - 0.03 in Rain Rain
11:56 AM 73.0 °F 70.0 °F 90% 29.96 in 8.0 mi East 10.4 mph - 0.05 in Rain Light Rain
12:07 PM 73.4 °F 69.8 °F 88% 30.01 in 5.0 mi ENE 10.4 mph - 0.02 in Rain Rain
12:21 PM 73.4 °F 69.8 °F 88% 30.01 in 5.0 mi East 8.1 mph - 0.04 in Rain Rain
12:56 PM 73.0 °F 71.1 °F 93% 29.97 in 8.0 mi East 5.8 mph - 0.07 in Rain Light Rain
1:40 PM 73.4 °F 71.6 °F 94% 30.00 in 7.0 mi East 10.4 mph - 0.00 in Rain Light Rain
1:56 PM 73.9 °F 71.1 °F 91% 29.96 in 5.0 mi ESE 4.6 mph - 0.02 in Rain Rain
2:02 PM 73.4 °F 71.6 °F 94% 30.01 in 7.0 mi ESE 3.5 mph - 0.00 in Rain Light Rain
2:11 PM 73.4 °F 71.6 °F 94% 30.02 in 8.0 mi SE 3.5 mph - 0.00 in Rain Light Rain
2:39 PM 73.4 °F 73.4 °F 100% 30.00 in 9.0 mi ESE 3.5 mph - 0.00 in Rain Light Rain
2:56 PM 73.9 °F 72.0 °F 93% 29.96 in 6.0 mi SE 4.6 mph - 0.01 in Rain Light Rain
3:03 PM 73.4 °F 71.6 °F 94% 30.01 in 5.0 mi South 4.6 mph - 0.00 in Rain Rain
3:20 PM 73.4 °F 73.4 °F 100% 30.01 in 7.0 mi WSW 3.5 mph - 0.01 in Rain Light Rain
3:51 PM 73.4 °F 71.6 °F 94% 30.01 in 10.0 mi SSW 4.6 mph - 0.01 in Rain Light Rain
3:56 PM 73.9 °F 72.0 °F 93% 29.96 in 10.0 mi South 5.8 mph - 0.01 in Rain Light Rain
4:53 PM 73.4 °F 71.6 °F 94% 30.00 in 10.0 mi SE 4.6 mph - 0.00 in Rain Light Rain
4:56 PM 73.9 °F 71.1 °F 91% 29.96 in 10.0 mi ESE 3.5 mph - 0.00 in Rain Light Rain
5:06 PM 73.4 °F 71.6 °F 94% 30.00 in 10.0 mi ESE 3.5 mph - 0.00 in Rain Light Rain
5:17 PM 73.4 °F 69.8 °F 88% 30.00 in 10.0 mi SE 4.6 mph - 0.00 in Rain Light Rain
5:56 PM 73.0 °F 71.1 °F 93% 29.98 in 5.0 mi Calm Calm - 0.02 in Rain Light Rain
6:10 PM 73.4 °F 71.6 °F 94% 30.02 in 2.5 mi Calm Calm - 0.03 in Rain Rain
6:21 PM 73.4 °F 71.6 °F 94% 30.03 in 3.0 mi Calm Calm - 0.05 in Rain Rain
6:37 PM 73.4 °F 71.6 °F 94% 30.02 in 5.0 mi SW 4.6 mph - 0.06 in Rain Light Rain
6:56 PM 73.0 °F 71.1 °F 93% 29.98 in 7.0 mi West 4.6 mph - 0.06 in Rain Light Rain
7:56 PM 73.0 °F 70.0 °F 90% 29.97 in 10.0 mi WNW 3.5 mph - 0.00 in   Mostly Cloudy
8:56 PM 72.0 °F 71.1 °F 97% 30.00 in 10.0 mi Calm Calm - 0.00 in Rain Light Rain
9:56 PM 72.0 °F 70.0 °F 93% 30.00 in 8.0 mi Calm Calm - 0.01 in Rain Light Rain
10:56 PM 71.1 °F 70.0 °F 96% 29.98 in 10.0 mi Calm Calm - 0.00 in Rain Light Rain
11:56 PM 71.1 °F 68.0 °F 90% 29.97 in 10.0 mi NE 6.9 mph - 0.00 in Rain Light Rain